Hourly Data Report for May 17, 2003

SHERBROOKE A
QUEBEC

45°26'00.000" N
71°41'00.000" W
241.40 m
7028124
71610
YSC

Download Data

Hourly Data (May 2003)
Hourly Data Report for May 17, 2003
TIME
LST
Temp Definition
°C
Dew Point Definition
°C
Rel Hum Definition
%
Precip. Amount Definition
mm

Wind Dir Definition
10's deg

Wind Spd Definition
km/h
Visibility Definition
km
Stn Press Definition
kPa
Hmdx Definition


Wind Chill Definition


Weather Definition


00:00 5.1 -1.5 62   10 9 15.0 100.08      
01:00 2.9 -1.5 73   5 6 15.0 100.09      
02:00 2.7 -2.2 70   12 4 15.0 100.11      
03:00 0.3 -2.4 82   11 7 15.0 100.16      
04:00 -0.2 -2.5 84   8 6 15.0 100.17   -2  
05:00 0.6 -1.7 85   10 6 15.0 100.24      
06:00 3.5 0.4 80   7 4 15.0 100.27      
07:00 7.4 1.3 65   7 4 24.1 100.28     Clear
08:00 10.6 0.7 50   3 7 24.1 100.28     Mainly Clear
09:00 14.2 0.3 39     0 24.1 100.22     Mainly Clear
10:00 16.6 0.7 34     0 24.1 100.18     Mainly Clear
11:00 19.1 -0.8 26   4 11 24.1 100.10     Mainly Clear
12:00 20.8 -0.6 24   3 13 24.1 99.99     Clear
13:00 21.9 -0.7 22     0 24.1 99.92     Mainly Clear
14:00 22.6 -0.8 21   22 9 24.1 99.84     Clear
15:00 23.6 0.2 21   1 7 24.1 99.79     Clear
16:00 23.5 1.6 24   30 7 24.1 99.74     Mainly Clear
17:00 23.0 0.1 22   28 6 15.0 99.74      
18:00 21.6 -1.0 22   22 11 15.0 99.75      
19:00 16.9 3.1 40   16 6 15.0 99.76      
20:00 12.9 1.8 47   17 6 15.0 99.80      
21:00 11.4 1.3 50   11 9 15.0 99.81      
22:00 9.6 2.6 62   10 7 15.0 99.83      
23:00 6.7 2.5 75   8 4 15.0 99.86      

Notes on Data Quality.

Legend

  • E = Estimated
  • M = Missing
  • NA = Not Available*
  • [empty] = Indicates an unobserved value
Date modified: